Lid_Strength_Index
4 6 7 6 6 6 7 8 8 7 5 7 7 7 7 6 5 6 5 4 4 4 2 2 1 1 1 0 0 0 0 -0 -0 0 1 1 0 0 -0 -1 -1 -1 -1 -1
6 7 5 5 5 6 7 8 8 7 6 7 7 8 6 6 6 5 5 5 4 4 3 2 2 1 1 1 1 0 0 -0 -0 0 -0 -0 -0 -1 -0 -1 -1 -2 -2 -1
7 6 5 6 6 7 7 8 8 8 6 6 7 8 8 6 5 5 4 4 4 4 4 3 2 2 1 1 1 1 0 0 -0 -0 -0 -0 -0 0 0 -0 0 -0 -1 -1
6 5 6 6 7 6 8 6 7 7 7 10 7 11 8 7 7 6 5 4 4 4 3 3 2 3 2 2 1 0 0 0 -0 -0 0 1 1 1 1 1 -0 -0 -1 -1
6 6 6 7 6 5 7 6 7 7 8 8 8 9 8 7 8 7 6 5 4 3 3 3 3 3 2 1 1 1 0 0 -0 -0 -0 1 1 1 0 1 0 -0 -0 -1
5 4 5 5 5 5 5 7 7 7 8 11 9 9 8 7 8 7 6 5 4 4 3 3 2 2 2 1 1 1 2 1 0 0 0 1 1 1 1 1 1 1 0 -0
6 6 5 5 6 5 6 7 11 12 12 12 8 9 8 6 6 6 6 5 4 4 3 3 3 3 2 2 1 1 1 2 1 1 0 1 1 1 1 1 1 1 1 1
8 9 6 5 5 7 7 7 10 14 13 12 8 10 8 6 6 5 5 4 4 4 3 3 3 3 2 2 1 1 1 1 0 1 0 0 0 1 1 1 1 1 1 0
8 8 5 5 5 5 7 8 6 8 9 11 9 8 6 6 6 6 6 5 5 4 4 3 3 2 2 2 2 1 1 1 1 1 0 0 -0 0 1 -0 -1 0 -0 0
6 9 6 5 5 5 6 5 8 8 12 14 10 10 9 8 8 7 7 6 5 4 4 3 3 2 2 2 1 1 1 1 1 0 0 0 0 -0 0 -0 0 0 1 1
5 7 7 6 7 7 7 7 7 7 8 12 13 11 6 7 6 7 6 6 5 5 4 3 3 2 2 1 1 1 1 1 1 0 0 0 0 0 1 1 1 1 0 -1
5 7 9 8 5 5 5 7 7 10 11 9 9 10 6 6 5 6 6 5 5 4 4 3 3 3 2 2 2 1 1 1 1 0 0 1 1 1 2 2 -0 -1 -1 -1
5 8 9 8 7 5 7 6 6 6 7 9 11 10 6 6 6 6 6 5 5 4 4 3 3 3 3 2 2 1 1 1 1 1 1 2 2 -0 -0 -0 -1 -1 -1 -1
4 7 8 10 8 7 8 7 6 7 9 9 8 8 8 7 7 6 6 6 5 4 4 4 4 3 2 2 2 1 1 1 2 2 0 0 0 -0 -0 -1 -1 -1 -1 -1
5 8 7 7 7 7 7 7 7 7 7 8 7 7 6 6 6 6 5 5 5 5 5 4 4 3 3 2 2 2 2 1 0 0 0 1 -0 -0 -0 -1 -0 -0 -0 -0
5 7 7 8 7 7 8 7 7 7 7 7 7 7 4 5 5 6 6 6 6 5 5 4 4 3 3 2 2 1 1 1 0 0 1 0 -0 -0 -0 -0 0 1 1 1
6 7 8 9 7 7 9 7 7 6 6 6 8 6 5 6 6 6 6 5 5 5 4 4 3 3 2 2 1 1 1 0 0 0 0 0 -0 0 0 1 1 2 2 1
7 7 7 9 8 11 7 5 5 6 6 5 5 6 6 6 5 5 4 5 5 4 4 3 3 2 2 1 1 1 1 0 1 1 0 0 1 1 1 1 2 2 2 1
5 7 9 10 10 8 7 6 6 7 7 5 5 6 6 5 5 5 4 3 4 4 3 3 2 2 1 1 1 2 1 1 1 1 1 1 1 1 1 2 1 1 1 1
5 6 8 9 11 11 7 5 4 4 8 4 5 6 6 6 9 7 4 3 3 3 2 2 2 2 1 1 2 2 1 1 1 1 1 1 1 1 1 1 1 -0 -1 0
8 8 10 9 10 8 5 5 4 10 7 4 4 5 5 7 5 4 3 3 3 3 2 2 2 2 1 2 2 1 1 1 0 0 0 0 1 1 0 0 -1 -0 0 -0
9 9 9 8 10 11 5 5 7 4 3 3 4 4 5 4 4 4 4 4 3 3 3 2 2 2 2 2 2 1 1 0 -0 -0 0 0 0 0 1 -0 -1 -0 -0 -0
9 7 8 7 7 6 4 4 3 3 4 4 4 4 4 4 4 4 4 4 3 3 3 2 2 2 2 2 1 1 1 0 1 1 1 1 1 -0 -0 -0 -0 1 -0 1
6 6 7 8 5 4 4 3 3 4 4 4 3 3 4 4 4 4 4 4 3 3 3 2 2 3 3 1 1 0 0 0 0 1 1 1 1 1 -0 1 0 0 1 2
7 7 7 7 6 5 4 4 4 3 3 3 3 3 4 4 4 4 4 4 3 3 2 2 3 3 2 1 1 1 0 0 1 1 2 2 2 1 1 0 0 1 0 3
6 7 8 8 6 6 5 4 3 4 4 3 4 4 3 3 4 3 4 3 3 3 3 2 3 2 2 1 1 0 0 -0 1 2 2 3 2 1 0 0 0 5 5 5